Total_Precipitation_Accumulation
0.48 0.54 0.53 0.47 0.42 0.62 0.88 1.05 0.94 1.09 1.17 0.95 0.77 0.71 0.71 0.77 0.93 1.00 0.81 0.83 0.83 0.78 0.89 1.01 0.92 0.78 0.70 0.64 0.59 0.55 0.50 0.53 0.50 0.39 0.31 0.27 0.25 0.27 0.29 0.31 0.30 0.26 0.23
0.84 0.89 0.86 0.77 0.69 0.78 0.95 1.07 1.06 1.18 1.06 0.99 0.66 0.65 0.69 0.77 0.88 0.88 0.76 0.92 0.85 0.71 0.74 0.85 0.86 0.80 0.73 0.70 0.63 0.55 0.48 0.48 0.46 0.37 0.31 0.27 0.22 0.20 0.23 0.30 0.34 0.30 0.21
1.22 1.20 1.02 0.88 0.90 1.02 1.07 1.04 1.01 1.04 0.84 0.79 0.64 0.74 0.72 0.64 0.59 0.56 0.57 0.63 0.67 0.58 0.50 0.53 0.64 0.70 0.74 0.80 0.76 0.72 0.59 0.47 0.38 0.31 0.27 0.23 0.18 0.14 0.17 0.22 0.30 0.31 0.25
1.43 1.41 1.09 0.86 1.01 1.10 1.07 1.04 0.93 0.94 0.87 0.86 0.79 0.74 0.76 0.71 0.53 0.44 0.42 0.40 0.43 0.39 0.39 0.41 0.45 0.53 0.69 0.84 0.89 0.90 0.78 0.55 0.41 0.32 0.26 0.22 0.17 0.12 0.11 0.14 0.21 0.26 0.23
1.48 1.53 1.22 1.04 1.12 1.08 0.99 0.94 1.04 1.17 1.06 1.03 1.01 0.84 0.69 0.58 0.46 0.36 0.28 0.23 0.25 0.32 0.40 0.43 0.36 0.39 0.59 0.85 0.98 1.03 0.95 0.72 0.49 0.37 0.33 0.27 0.21 0.16 0.12 0.10 0.10 0.14 0.16
1.28 1.34 1.13 1.04 1.14 1.09 0.93 0.96 1.02 1.09 0.95 0.99 0.97 0.71 0.55 0.40 0.35 0.28 0.20 0.17 0.15 0.13 0.21 0.35 0.45 0.39 0.46 0.65 0.83 0.95 0.98 0.88 0.68 0.50 0.42 0.37 0.31 0.23 0.16 0.10 0.07 0.07 0.09
0.97 1.09 0.93 0.96 1.02 0.91 0.80 0.81 0.85 0.87 0.73 0.96 1.03 0.60 0.31 0.23 0.17 0.14 0.16 0.14 0.10 0.11 0.14 0.22 0.32 0.39 0.42 0.45 0.61 0.69 0.93 1.04 0.89 0.65 0.52 0.44 0.39 0.31 0.21 0.15 0.11 0.08 0.08
0.93 0.87 0.84 0.83 0.82 0.79 0.69 0.63 0.71 0.70 0.56 0.79 0.87 0.72 0.39 0.20 0.10 0.05 0.08 0.09 0.11 0.15 0.15 0.18 0.25 0.33 0.35 0.43 0.53 0.42 0.57 0.83 0.92 0.85 0.70 0.54 0.47 0.40 0.31 0.25 0.19 0.14 0.10
1.11 1.04 0.94 0.84 0.76 0.74 0.69 0.63 0.65 0.66 0.55 0.55 0.71 0.85 0.60 0.31 0.22 0.11 0.13 0.19 0.26 0.31 0.24 0.23 0.27 0.33 0.37 0.45 0.54 0.60 0.40 0.54 0.79 1.06 0.98 0.75 0.55 0.41 0.34 0.34 0.32 0.23 0.16
1.32 1.18 1.04 0.85 0.71 0.65 0.65 0.58 0.57 0.62 0.63 0.52 0.53 0.63 0.66 0.63 0.55 0.26 0.12 0.17 0.34 0.40 0.36 0.31 0.34 0.38 0.41 0.49 0.64 0.93 0.79 0.63 0.70 1.00 1.12 0.98 0.74 0.53 0.45 0.47 0.58 0.53 0.33
1.08 0.93 0.86 0.77 0.66 0.58 0.55 0.56 0.61 0.64 0.64 0.57 0.53 0.53 0.59 0.69 0.68 0.57 0.30 0.28 0.35 0.34 0.33 0.35 0.39 0.47 0.53 0.66 0.91 1.15 1.32 1.10 0.91 0.82 0.85 0.87 0.86 0.73 0.61 0.65 0.96 1.12 0.89
0.66 0.64 0.62 0.63 0.61 0.59 0.57 0.54 0.56 0.60 0.62 0.63 0.64 0.65 0.68 0.70 0.72 0.79 0.66 0.57 0.52 0.44 0.44 0.52 0.59 0.72 0.80 0.87 0.99 1.19 1.18 1.20 1.16 1.06 0.96 0.85 0.81 0.81 0.80 0.86 1.10 1.35 1.44
0.45 0.49 0.52 0.56 0.57 0.59 0.65 0.71 0.68 0.65 0.67 0.71 0.72 0.77 0.83 0.83 0.87 0.93 0.89 0.78 0.73 0.70 0.75 0.77 0.77 0.88 0.87 0.92 0.98 0.91 0.74 0.80 0.84 0.84 0.82 0.78 0.74 0.78 0.82 0.83 0.97 1.19 1.42
0.46 0.49 0.56 0.61 0.61 0.62 0.63 0.71 0.74 0.77 0.80 0.79 0.76 0.84 0.89 0.87 0.92 0.99 1.00 0.97 0.86 0.88 1.00 1.05 0.88 0.81 0.81 0.86 0.90 0.77 0.69 0.61 0.48 0.42 0.41 0.44 0.48 0.56 0.66 0.79 0.89 0.93 1.03
0.50 0.55 0.62 0.70 0.72 0.73 0.74 0.77 0.78 0.87 1.00 1.04 1.01 0.99 1.01 0.96 0.95 1.00 1.05 1.04 0.98 0.91 0.97 1.00 0.81 0.73 0.69 0.71 0.78 0.81 0.86 0.66 0.38 0.28 0.26 0.26 0.28 0.33 0.39 0.51 0.62 0.74 0.85
0.54 0.58 0.63 0.66 0.71 0.72 0.74 0.78 0.84 0.94 1.07 1.11 1.15 1.20 1.18 1.12 1.08 1.05 1.01 1.04 1.09 1.06 0.97 0.89 0.75 0.66 0.65 0.58 0.62 0.61 0.63 0.47 0.30 0.25 0.24 0.24 0.22 0.23 0.26 0.34 0.43 0.52 0.62
0.52 0.58 0.56 0.50 0.48 0.53 0.64 0.77 0.85 0.94 1.02 1.05 1.10 1.09 1.03 1.02 1.02 0.91 0.90 0.94 1.00 1.05 0.92 0.82 0.75 0.72 0.69 0.63 0.58 0.47 0.40 0.31 0.30 0.27 0.24 0.24 0.23 0.24 0.23 0.24 0.29 0.37 0.47
0.49 0.54 0.50 0.45 0.44 0.51 0.63 0.76 0.92 1.13 1.25 1.21 1.12 1.01 0.92 0.93 0.95 0.91 0.91 0.85 0.84 0.91 0.85 0.80 0.76 0.71 0.64 0.56 0.52 0.49 0.41 0.36 0.39 0.38 0.29 0.25 0.24 0.25 0.23 0.22 0.26 0.30 0.40
0.47 0.48 0.48 0.53 0.63 0.72 0.82 0.93 0.99 1.14 1.20 1.11 1.05 0.96 0.88 0.85 0.86 0.88 0.90 0.87 0.74 0.74 0.77 0.75 0.74 0.70 0.65 0.56 0.46 0.45 0.44 0.52 0.55 0.46 0.32 0.26 0.23 0.23 0.24 0.23 0.28 0.36 0.49
0.31 0.40 0.53 0.70 0.81 0.87 0.91 0.97 0.94 0.91 0.91 0.85 0.78 0.73 0.75 0.84 0.87 0.82 0.76 0.72 0.68 0.63 0.60 0.60 0.64 0.65 0.63 0.56 0.47 0.46 0.53 0.58 0.61 0.49 0.42 0.33 0.26 0.21 0.21 0.19 0.20 0.31 0.44
0.27 0.37 0.51 0.61 0.60 0.63 0.73 0.80 0.79 0.76 0.69 0.65 0.57 0.44 0.45 0.60 0.72 0.72 0.69 0.63 0.56 0.52 0.46 0.45 0.48 0.53 0.56 0.54 0.45 0.41 0.45 0.58 0.64 0.64 0.62 0.53 0.43 0.37 0.36 0.34 0.27 0.27 0.30
0.23 0.30 0.37 0.37 0.34 0.30 0.29 0.32 0.38 0.44 0.45 0.43 0.38 0.34 0.36 0.41 0.44 0.46 0.52 0.53 0.51 0.47 0.44 0.43 0.42 0.43 0.48 0.45 0.41 0.40 0.45 0.58 0.78 0.85 0.89 0.90 0.74 0.69 0.69 0.67 0.50 0.29 0.20
0.22 0.27 0.26 0.26 0.28 0.28 0.17 0.11 0.14 0.24 0.28 0.27 0.24 0.25 0.25 0.27 0.27 0.23 0.24 0.26 0.30 0.32 0.35 0.40 0.42 0.38 0.40 0.38 0.37 0.41 0.49 0.71 0.95 1.08 1.09 1.19 1.01 0.85 0.79 0.72 0.60 0.40 0.26
0.28 0.32 0.29 0.28 0.29 0.28 0.18 0.13 0.11 0.14 0.23 0.22 0.19 0.17 0.18 0.22 0.22 0.18 0.13 0.15 0.16 0.18 0.22 0.26 0.33 0.37 0.38 0.37 0.34 0.34 0.36 0.48 0.69 0.79 0.86 1.08 1.11 1.08 0.97 0.73 0.59 0.49 0.38
0.37 0.34 0.32 0.33 0.34 0.35 0.24 0.15 0.13 0.18 0.28 0.27 0.24 0.20 0.16 0.17 0.17 0.17 0.14 0.11 0.11 0.14 0.18 0.21 0.25 0.30 0.32 0.33 0.31 0.28 0.27 0.29 0.36 0.34 0.34 0.61 0.84 0.95 1.09 1.01 0.75 0.63 0.50
0.49 0.42 0.38 0.39 0.42 0.47 0.39 0.24 0.17 0.25 0.39 0.39 0.36 0.29 0.23 0.19 0.16 0.12 0.12 0.13 0.11 0.10 0.10 0.12 0.15 0.20 0.22 0.24 0.26 0.22 0.23 0.25 0.26 0.25 0.17 0.21 0.33 0.50 0.69 0.77 0.72 0.70 0.70